Time,TemperatureF,DewpointF,PressureIn,WindDirection,WindDirectionDegrees,WindSpeedMPH,WindSpeedGustMPH,Humidity,HourlyPrecipIn,Conditions,Clouds,dailyrainin,SoftwareType,DateUTC
2013-02-06 00:01:00,35.6,23.1,29.68,NNW,338,1.3,1.3,60,0.00,,SKC,0.00,VWS V14.01,2013-02-06 07:01:00,
2013-02-06 00:06:00,35.6,23.1,29.68,NNW,338,1.6,3.6,60,0.00,,SKC,0.00,VWS V14.01,2013-02-06 07:06:00,
2013-02-06 00:11:00,35.6,23.1,29.68,NNW,338,1.6,3.6,60,0.00,,SKC,0.00,VWS V14.01,2013-02-06 07:11:00,
2013-02-06 00:16:00,35.6,23.1,29.68,NNW,338,0.4,3.6,60,0.00,,SKC,0.00,VWS V14.01,2013-02-06 07:16:00,
2013-02-06 00:22:00,35.1,23.0,29.68,NW,315,1.1,3.6,61,0.00,,SKC,0.00,VWS V14.01,2013-02-06 07:22:00,
2013-02-06 00:27:00,34.6,22.9,29.68,NW,315,1.6,3.6,62,0.00,,SKC,0.00,VWS V14.01,2013-02-06 07:27:00,
2013-02-06 00:32:00,34.0,22.7,29.68,NW,315,0.7,1.6,63,0.00,,SKC,0.00,VWS V14.01,2013-02-06 07:32:00,
2013-02-06 00:37:00,33.8,22.5,29.68,NW,315,1.1,2.0,63,0.00,,SKC,0.00,VWS V14.01,2013-02-06 07:37:00,
2013-02-06 00:42:00,33.8,22.9,29.68,NW,315,1.8,2.7,64,0.00,,SKC,0.00,VWS V14.01,2013-02-06 07:42:00,
2013-02-06 00:47:00,33.7,22.8,29.68,NNW,338,2.0,2.7,64,0.00,,SKC,0.00,VWS V14.01,2013-02-06 07:47:00,
2013-02-06 00:52:00,34.0,22.7,29.67,WNW,292,0.4,2.7,63,0.00,,SKC,0.00,VWS V14.01,2013-02-06 07:52:00,
2013-02-06 00:57:00,34.0,22.7,29.67,NNW,338,1.1,2.7,63,0.00,,SKC,0.00,VWS V14.01,2013-02-06 07:57:00,
2013-02-06 01:03:00,33.7,22.5,29.67,NNW,338,1.6,2.0,63,0.00,,SKC,0.00,VWS V14.01,2013-02-06 08:03:00,
2013-02-06 01:08:00,33.5,22.6,29.67,NW,315,2.0,2.2,64,0.00,,SKC,0.00,VWS V14.01,2013-02-06 08:08:00,
2013-02-06 01:13:00,33.5,22.6,29.67,NNW,338,0.4,2.2,64,0.00,,SKC,0.00,VWS V14.01,2013-02-06 08:13:00,
2013-02-06 01:18:00,33.3,22.5,29.67,NW,315,0.7,2.2,64,0.00,,SKC,0.00,VWS V14.01,2013-02-06 08:18:00,
2013-02-06 01:23:00,33.1,22.6,29.67,NNW,338,0.9,2.2,65,0.00,,SKC,0.00,VWS V14.01,2013-02-06 08:23:00,
2013-02-06 01:28:00,33.1,23.0,29.67,North,0,0.9,2.2,66,0.00,,SKC,0.00,VWS V14.01,2013-02-06 08:28:00,
2013-02-06 01:33:00,32.9,22.8,29.67,North,0,0.0,0.9,66,0.00,,SKC,0.00,VWS V14.01,2013-02-06 08:33:00,
2013-02-06 01:38:00,33.1,23.0,29.67,NNW,338,0.7,1.3,66,0.00,,SKC,0.00,VWS V14.01,2013-02-06 08:38:00,
2013-02-06 01:43:00,33.1,23.0,29.67,North,0,1.8,1.8,66,0.00,,SKC,0.00,VWS V14.01,2013-02-06 08:43:00,
2013-02-06 01:49:00,33.1,23.0,29.67,NNW,338,1.1,1.8,66,0.00,,SKC,0.00,VWS V14.01,2013-02-06 08:49:00,
2013-02-06 01:54:00,33.1,23.0,29.67,NNW,338,1.3,1.8,66,0.00,,SKC,0.00,VWS V14.01,2013-02-06 08:54:00,
2013-02-06 01:59:00,32.8,22.7,29.67,NNW,338,2.0,2.0,66,0.00,,SKC,0.00,VWS V14.01,2013-02-06 08:59:00,
2013-02-06 02:04:00,32.9,22.8,29.67,NNW,338,1.8,1.8,66,0.00,,SKC,0.00,VWS V14.01,2013-02-06 09:04:00,
2013-02-06 02:09:00,32.6,22.5,29.67,NNW,338,0.2,1.8,66,0.00,,SKC,0.00,VWS V14.01,2013-02-06 09:09:00,
2013-02-06 02:14:00,32.4,22.3,29.67,NNW,338,0.9,1.8,66,0.00,,SKC,0.00,VWS V14.01,2013-02-06 09:14:00,
2013-02-06 02:19:00,32.2,22.5,29.67,NNW,338,1.1,2.0,67,0.00,,SKC,0.00,VWS V14.01,2013-02-06 09:19:00,
2013-02-06 02:24:00,32.0,21.9,29.67,NNW,338,3.1,3.1,66,0.00,,SKC,0.00,VWS V14.01,2013-02-06 09:24:00,
2013-02-06 02:29:00,31.9,21.9,29.67,NW,315,4.0,4.0,66,0.00,,SKC,0.00,VWS V14.01,2013-02-06 09:29:00,
2013-02-06 02:34:00,32.0,21.9,29.67,NNW,338,2.5,2.9,66,0.00,,SKC,0.00,VWS V14.01,2013-02-06 09:34:00,
2013-02-06 02:40:00,31.7,21.7,29.67,NNW,338,0.7,2.9,66,0.00,,SKC,0.00,VWS V14.01,2013-02-06 09:40:00,
2013-02-06 02:45:00,31.5,21.8,29.67,NNW,338,1.8,2.9,67,0.00,,SKC,0.00,VWS V14.01,2013-02-06 09:45:00,
2013-02-06 02:50:00,31.3,22.0,29.66,NW,315,2.0,2.9,68,0.00,,SKC,0.00,VWS V14.01,2013-02-06 09:50:00,
2013-02-06 02:55:00,31.5,21.8,29.66,NW,315,1.1,2.9,67,0.00,,SKC,0.00,VWS V14.01,2013-02-06 09:55:00,
2013-02-06 03:00:00,31.9,22.2,29.66,NW,315,1.1,1.1,67,0.00,,SKC,0.00,VWS V14.01,2013-02-06 10:00:00,
2013-02-06 03:05:00,31.9,21.9,29.66,NNW,338,3.1,3.1,66,0.00,,SKC,0.00,VWS V14.01,2013-02-06 10:05:00,
2013-02-06 03:10:00,31.5,21.8,29.66,NNW,338,2.5,3.1,67,0.00,,SKC,0.00,VWS V14.01,2013-02-06 10:10:00,
2013-02-06 03:15:00,31.3,21.6,29.66,NNW,338,2.2,3.1,67,0.00,,SKC,0.00,VWS V14.01,2013-02-06 10:15:00,
2013-02-06 03:21:00,31.3,21.6,29.66,NNW,338,2.7,3.1,67,0.00,,SKC,0.00,VWS V14.01,2013-02-06 10:21:00,
2013-02-06 03:26:00,30.8,21.5,29.66,NNW,338,2.9,3.1,68,0.00,,SKC,0.00,VWS V14.01,2013-02-06 10:26:00,
2013-02-06 03:31:00,30.4,21.1,29.66,WNW,292,1.8,2.0,68,0.00,,SKC,0.00,VWS V14.01,2013-02-06 10:31:00,
2013-02-06 03:36:00,30.1,21.5,29.66,NNW,338,1.1,2.5,70,0.00,,SKC,0.00,VWS V14.01,2013-02-06 10:36:00,
2013-02-06 03:41:00,29.9,21.7,29.66,NNW,338,1.1,2.9,71,0.00,,SKC,0.00,VWS V14.01,2013-02-06 10:41:00,
2013-02-06 03:46:00,29.7,21.8,29.65,NNW,338,2.9,2.9,72,0.00,,SKC,0.00,VWS V14.01,2013-02-06 10:46:00,
2013-02-06 03:51:00,29.7,21.8,29.65,NNW,338,2.0,2.9,72,0.00,,SKC,0.00,VWS V14.01,2013-02-06 10:51:00,
2013-02-06 03:56:00,29.9,22.0,29.66,NNW,338,1.3,2.9,72,0.00,,SKC,0.00,VWS V14.01,2013-02-06 10:56:00,
2013-02-06 04:02:00,29.9,21.7,29.66,NNW,338,1.1,1.6,71,0.00,,SKC,0.00,VWS V14.01,2013-02-06 11:02:00,
2013-02-06 04:07:00,29.7,21.5,29.66,NNW,338,2.7,2.7,71,0.00,,SKC,0.00,VWS V14.01,2013-02-06 11:07:00,
2013-02-06 04:12:00,29.7,21.5,29.65,NNW,338,1.3,2.7,71,0.00,,SKC,0.00,VWS V14.01,2013-02-06 11:12:00,
2013-02-06 04:17:00,29.7,21.5,29.65,NW,315,1.6,2.7,71,0.00,,SKC,0.00,VWS V14.01,2013-02-06 11:17:00,
2013-02-06 04:22:00,29.5,21.3,29.66,NW,315,0.2,2.7,71,0.00,,SKC,0.00,VWS V14.01,2013-02-06 11:22:00,
2013-02-06 04:27:00,29.3,21.4,29.66,North,0,1.3,2.7,72,0.00,,SKC,0.00,VWS V14.01,2013-02-06 11:27:00,
2013-02-06 04:32:00,29.3,21.4,29.66,NNW,338,0.9,1.1,72,0.00,,SKC,0.00,VWS V14.01,2013-02-06 11:32:00,
2013-02-06 04:38:00,29.2,21.6,29.66,NNW,338,1.8,1.8,73,0.00,,SKC,0.00,VWS V14.01,2013-02-06 11:38:00,
2013-02-06 04:43:00,29.2,21.6,29.66,NNW,338,2.9,3.1,73,0.00,,SKC,0.00,VWS V14.01,2013-02-06 11:43:00,
2013-02-06 04:48:00,29.2,21.6,29.66,NNW,338,2.2,4.5,73,0.00,,SKC,0.00,VWS V14.01,2013-02-06 11:48:00,
2013-02-06 04:53:00,29.5,21.9,29.67,NNW,338,2.9,4.5,73,0.00,,SKC,0.00,VWS V14.01,2013-02-06 11:53:00,
2013-02-06 04:58:00,30.2,21.9,29.66,NW,315,0.9,4.5,71,0.00,,SKC,0.00,VWS V14.01,2013-02-06 11:58:00,
2013-02-06 05:03:00,30.2,21.6,29.66,NW,315,0.7,1.8,70,0.00,,SKC,0.00,VWS V14.01,2013-02-06 12:03:00,
2013-02-06 05:08:00,29.9,21.7,29.67,NW,315,1.3,2.7,71,0.00,,SKC,0.00,VWS V14.01,2013-02-06 12:08:00,
2013-02-06 05:14:00,29.5,21.3,29.67,NNW,338,1.1,2.7,71,0.00,,SKC,0.00,VWS V14.01,2013-02-06 12:14:00,
2013-02-06 05:19:00,29.2,21.3,29.67,NW,315,0.2,2.7,72,0.00,,SKC,0.00,VWS V14.01,2013-02-06 12:19:00,
2013-02-06 05:24:00,29.2,21.6,29.67,WNW,292,0.2,2.7,73,0.00,,SKC,0.00,VWS V14.01,2013-02-06 12:24:00,
2013-02-06 05:29:00,29.5,21.6,29.67,NW,315,1.6,2.7,72,0.00,,SKC,0.00,VWS V14.01,2013-02-06 12:29:00,
2013-02-06 05:34:00,29.9,22.0,29.67,WNW,292,0.4,1.1,72,0.00,,SKC,0.00,VWS V14.01,2013-02-06 12:34:00,
2013-02-06 05:39:00,29.7,21.8,29.67,NW,315,1.1,1.1,72,0.00,,SKC,0.00,VWS V14.01,2013-02-06 12:39:00,
2013-02-06 05:44:00,29.9,22.0,29.67,NW,315,0.9,2.5,72,0.00,,SKC,0.00,VWS V14.01,2013-02-06 12:44:00,
2013-02-06 05:49:00,29.9,22.0,29.67,NNW,338,1.1,2.5,72,0.00,,SKC,0.00,VWS V14.01,2013-02-06 12:49:00,
2013-02-06 05:54:00,30.2,21.9,29.67,NW,315,0.4,2.5,71,0.00,,SKC,0.00,VWS V14.01,2013-02-06 12:54:00,
2013-02-06 06:00:00,30.4,22.1,29.67,NNW,338,1.8,2.5,71,0.00,,SKC,0.00,VWS V14.01,2013-02-06 13:00:00,
2013-02-06 06:05:00,30.4,22.5,29.67,NW,315,1.3,2.0,72,0.00,,SKC,0.00,VWS V14.01,2013-02-06 13:05:00,
2013-02-06 06:10:00,30.2,22.3,29.67,NNW,338,2.7,2.7,72,0.00,,SKC,0.00,VWS V14.01,2013-02-06 13:10:00,
2013-02-06 06:15:00,30.1,22.2,29.67,NNW,338,0.4,2.7,72,0.00,,SKC,0.00,VWS V14.01,2013-02-06 13:15:00,
2013-02-06 06:20:00,30.1,21.9,29.67,WNW,292,0.9,2.9,71,0.00,,SKC,0.00,VWS V14.01,2013-02-06 13:20:00,
2013-02-06 06:25:00,30.1,21.5,29.67,NNW,338,1.1,2.9,70,0.00,,SKC,0.00,VWS V14.01,2013-02-06 13:25:00,
2013-02-06 06:30:00,29.9,21.3,29.68,NNW,338,1.1,1.1,70,0.00,,SKC,0.00,VWS V14.01,2013-02-06 13:30:00,
2013-02-06 06:35:00,29.9,21.3,29.68,NW,315,1.1,2.7,70,0.00,,SKC,0.00,VWS V14.01,2013-02-06 13:35:00,
2013-02-06 06:41:00,29.9,21.7,29.68,NNW,338,1.1,2.7,71,0.00,,SKC,0.00,VWS V14.01,2013-02-06 13:41:00,
2013-02-06 06:46:00,29.9,22.0,29.68,NNW,338,0.0,2.7,72,0.00,,SKC,0.00,VWS V14.01,2013-02-06 13:46:00,
2013-02-06 06:51:00,29.5,21.6,29.68,NNW,338,0.4,2.7,72,0.00,,SKC,0.00,VWS V14.01,2013-02-06 13:51:00,
2013-02-06 06:56:00,29.3,21.7,29.68,NNW,338,0.2,2.7,73,0.00,,SKC,0.00,VWS V14.01,2013-02-06 13:56:00,
2013-02-06 07:01:00,29.3,21.7,29.68,NNW,338,0.4,0.4,73,0.00,,SKC,0.00,VWS V14.01,2013-02-06 14:01:00,
2013-02-06 07:06:00,29.2,22.0,29.68,NW,315,0.4,0.4,74,0.00,,SKC,0.00,VWS V14.01,2013-02-06 14:06:00,
2013-02-06 07:11:00,29.2,22.0,29.69,NW,315,0.4,0.9,74,0.00,,SKC,0.00,VWS V14.01,2013-02-06 14:11:00,
2013-02-06 07:17:00,29.2,21.6,29.69,NW,315,0.4,0.9,73,0.00,,SKC,0.00,VWS V14.01,2013-02-06 14:17:00,
2013-02-06 07:22:00,29.3,21.7,29.69,NNW,338,0.0,0.9,73,0.00,,SKC,0.00,VWS V14.01,2013-02-06 14:22:00,
2013-02-06 07:27:00,29.9,22.0,29.69,NNW,338,1.1,1.1,72,0.00,,SKC,0.00,VWS V14.01,2013-02-06 14:27:00,
2013-02-06 07:32:00,30.1,22.2,29.69,NNW,338,0.4,0.7,72,0.00,,SKC,0.00,VWS V14.01,2013-02-06 14:32:00,
2013-02-06 07:37:00,30.1,21.9,29.70,NW,315,0.0,0.9,71,0.00,,SKC,0.00,VWS V14.01,2013-02-06 14:37:00,
2013-02-06 07:42:00,30.4,22.1,29.70,NNW,338,0.0,0.9,71,0.00,,SKC,0.00,VWS V14.01,2013-02-06 14:42:00,
2013-02-06 07:47:00,31.0,22.4,29.70,NNW,338,0.0,0.9,70,0.00,,SKC,0.00,VWS V14.01,2013-02-06 14:47:00,
2013-02-06 07:53:00,31.5,22.9,29.70,NNW,338,0.2,1.1,70,0.00,,SKC,0.00,VWS V14.01,2013-02-06 14:53:00,
2013-02-06 07:58:00,31.9,22.9,29.70,NNW,338,0.2,1.3,69,0.00,,SKC,0.00,VWS V14.01,2013-02-06 14:58:00,
2013-02-06 08:03:00,32.4,23.4,29.70,North,0,0.4,1.1,69,0.00,,SKC,0.00,VWS V14.01,2013-02-06 15:03:00,
2013-02-06 08:08:00,32.8,23.4,29.71,NW,315,0.4,1.1,68,0.00,,SKC,0.00,VWS V14.01,2013-02-06 15:08:00,
2013-02-06 08:13:00,32.9,23.2,29.71,NNW,338,0.7,1.1,67,0.00,,SKC,0.00,VWS V14.01,2013-02-06 15:13:00,
2013-02-06 08:18:00,33.1,23.4,29.72,North,0,2.2,2.2,67,0.00,,SKC,0.00,VWS V14.01,2013-02-06 15:18:00,
2013-02-06 08:23:00,33.5,23.7,29.72,NNW,338,0.2,2.2,67,0.00,,SKC,0.00,VWS V14.01,2013-02-06 15:23:00,
2013-02-06 08:29:00,34.0,23.9,29.72,NNW,338,0.4,2.2,66,0.00,,SKC,0.00,VWS V14.01,2013-02-06 15:29:00,
2013-02-06 08:34:00,34.9,25.1,29.72,WNW,292,1.3,1.8,67,0.00,,SKC,0.00,VWS V14.01,2013-02-06 15:34:00,
2013-02-06 08:39:00,35.6,25.0,29.72,NNE,22,1.6,1.8,65,0.00,,SKC,0.00,VWS V14.01,2013-02-06 15:39:00,
2013-02-06 08:44:00,36.5,24.3,29.72,WNW,292,1.6,1.8,61,0.00,,SKC,0.00,VWS V14.01,2013-02-06 15:44:00,
2013-02-06 08:49:00,39.1,25.2,29.72,WNW,292,1.1,1.8,57,0.00,,SKC,0.00,VWS V14.01,2013-02-06 15:49:00,
2013-02-06 08:54:00,40.9,24.6,29.72,WNW,292,1.6,2.2,52,0.00,,SKC,0.00,VWS V14.01,2013-02-06 15:54:00,
2013-02-06 08:59:00,42.5,25.2,29.72,WNW,292,1.1,2.2,50,0.00,,SKC,0.00,VWS V14.01,2013-02-06 15:59:00,
2013-02-06 09:05:00,43.4,26.0,29.72,NW,315,1.6,2.0,50,0.00,,SKC,0.00,VWS V14.01,2013-02-06 16:05:00,
2013-02-06 09:10:00,43.9,25.5,29.72,NNE,22,1.8,2.5,48,0.00,,SKC,0.00,VWS V14.01,2013-02-06 16:10:00,
2013-02-06 09:15:00,45.4,25.9,29.72,NNW,338,0.7,2.7,46,0.00,,SKC,0.00,VWS V14.01,2013-02-06 16:15:00,
2013-02-06 09:20:00,46.8,26.0,29.73,WNW,292,1.3,4.0,44,0.00,,SKC,0.00,VWS V14.01,2013-02-06 16:20:00,
2013-02-06 09:25:00,47.9,25.9,29.73,WNW,292,0.0,4.0,42,0.00,,SKC,0.00,VWS V14.01,2013-02-06 16:25:00,
2013-02-06 09:30:00,48.1,25.5,29.73,NW,315,0.4,0.4,41,0.00,,SKC,0.00,VWS V14.01,2013-02-06 16:30:00,
2013-02-06 09:35:00,48.6,27.1,29.73,NE,45,2.0,2.7,43,0.00,,SKC,0.00,VWS V14.01,2013-02-06 16:35:00,
2013-02-06 09:41:00,50.8,28.0,29.73,WNW,292,1.6,2.7,41,0.00,,SKC,0.00,VWS V14.01,2013-02-06 16:41:00,
2013-02-06 09:46:00,51.5,27.4,29.73,NW,315,0.4,2.7,39,0.00,,SKC,0.00,VWS V14.01,2013-02-06 16:46:00,
2013-02-06 09:51:00,51.5,27.4,29.73,NW,315,3.4,4.0,39,0.00,,SKC,0.00,VWS V14.01,2013-02-06 16:51:00,
2013-02-06 09:56:00,51.8,27.6,29.73,NNE,22,1.1,4.0,39,0.00,,SKC,0.00,VWS V14.01,2013-02-06 16:56:00,
2013-02-06 10:01:00,52.6,27.7,29.73,WNW,292,1.1,1.1,38,0.00,,SKC,0.00,VWS V14.01,2013-02-06 17:01:00,
2013-02-06 10:06:00,52.7,27.8,29.73,North,0,1.8,2.2,38,0.00,,SKC,0.00,VWS V14.01,2013-02-06 17:06:00,
2013-02-06 10:11:00,52.9,28.0,29.73,NW,315,1.3,2.5,38,0.00,,SKC,0.00,VWS V14.01,2013-02-06 17:11:00,
2013-02-06 10:17:00,53.5,27.2,29.74,WNW,292,1.8,5.6,36,0.00,,SKC,0.00,VWS V14.01,2013-02-06 17:17:00,
2013-02-06 10:22:00,53.6,28.0,29.74,WNW,292,1.8,5.6,37,0.00,,SKC,0.00,VWS V14.01,2013-02-06 17:22:00,
2013-02-06 10:27:00,54.2,28.5,29.74,WNW,292,0.4,5.6,37,0.00,,SKC,0.00,VWS V14.01,2013-02-06 17:27:00,
2013-02-06 10:32:00,53.6,28.6,29.75,NW,315,1.8,4.5,38,0.00,,SKC,0.00,VWS V14.01,2013-02-06 17:32:00,
2013-02-06 10:37:00,53.6,29.3,29.75,NNW,338,3.4,4.5,39,0.00,,SKC,0.00,VWS V14.01,2013-02-06 17:37:00,
2013-02-06 10:42:00,53.8,28.8,29.75,WNW,292,2.5,4.5,38,0.00,,SKC,0.00,VWS V14.01,2013-02-06 17:42:00,
2013-02-06 10:47:00,54.2,28.5,29.75,NNW,338,0.7,4.5,37,0.00,,SKC,0.00,VWS V14.01,2013-02-06 17:47:00,
2013-02-06 10:52:00,53.5,28.5,29.75,WNW,292,1.3,4.5,38,0.00,,SKC,0.00,VWS V14.01,2013-02-06 17:52:00,
2013-02-06 10:57:00,52.2,28.0,29.75,NNE,22,0.7,4.5,39,0.00,,SKC,0.00,VWS V14.01,2013-02-06 17:57:00,
2013-02-06 11:02:00,51.5,28.0,29.75,NW,315,1.1,4.5,40,0.00,,SKC,0.00,VWS V14.01,2013-02-06 18:02:00,
2013-02-06 11:08:00,52.2,29.2,29.74,North,0,4.0,4.5,41,0.00,,SKC,0.00,VWS V14.01,2013-02-06 18:08:00,
2013-02-06 11:13:00,51.8,28.9,29.74,East,90,1.8,6.7,41,0.00,,SKC,0.00,VWS V14.01,2013-02-06 18:13:00,
2013-02-06 11:18:00,51.5,28.6,29.74,NNE,22,4.5,6.7,41,0.00,,SKC,0.00,VWS V14.01,2013-02-06 18:18:00,
2013-02-06 11:23:00,50.4,28.8,29.74,NNE,22,2.0,6.7,43,0.00,,SKC,0.00,VWS V14.01,2013-02-06 18:23:00,
2013-02-06 11:28:00,49.9,28.3,29.74,NNE,22,3.1,6.7,43,0.00,,SKC,0.00,VWS V14.01,2013-02-06 18:28:00,
2013-02-06 11:33:00,49.5,28.0,29.74,North,0,4.3,4.3,43,0.00,,SKC,0.00,VWS V14.01,2013-02-06 18:33:00,
2013-02-06 11:38:00,49.1,27.6,29.74,NNW,338,0.9,4.3,43,0.00,,SKC,0.00,VWS V14.01,2013-02-06 18:38:00,
2013-02-06 11:39:00,49.0,27.5,29.74,East,90,0.7,4.3,43,0.00,,SKC,0.00,VWS V14.01,2013-02-06 18:39:00,
2013-02-06 13:18:00,47.9,27.6,29.74,North,0,3.8,4.3,45,0.00,,SKC,0.00,VWS V14.01,2013-02-06 20:18:00,
2013-02-06 13:23:00,48.1,28.3,29.74,WNW,292,2.5,4.3,46,0.00,,SKC,0.00,VWS V14.01,2013-02-06 20:23:00,
2013-02-06 13:28:00,47.7,28.0,29.74,North,0,5.1,5.1,46,0.00,,SKC,0.00,VWS V14.01,2013-02-06 20:28:00,
2013-02-06 13:33:00,47.2,28.0,29.74,NNW,338,0.9,4.7,47,0.00,,SKC,0.00,VWS V14.01,2013-02-06 20:33:00,
2013-02-06 13:38:00,46.6,27.5,29.74,North,0,1.3,4.7,47,0.00,,SKC,0.00,VWS V14.01,2013-02-06 20:38:00,
2013-02-06 13:43:00,46.1,27.0,29.74,NNE,22,0.2,4.7,47,0.00,,SKC,0.00,VWS V14.01,2013-02-06 20:43:00,
2013-02-06 13:49:00,45.7,27.1,29.74,North,0,1.1,4.7,48,0.00,,SKC,0.00,VWS V14.01,2013-02-06 20:49:00,
2013-02-06 13:54:00,45.7,27.1,29.74,NW,315,1.8,4.7,48,0.00,,SKC,0.00,VWS V14.01,2013-02-06 20:54:00,
2013-02-06 13:59:00,45.7,26.6,29.75,NNE,22,2.9,5.4,47,0.00,,SKC,0.00,VWS V14.01,2013-02-06 20:59:00,
2013-02-06 14:04:00,45.9,26.8,29.74,North,0,0.4,1.1,47,0.00,,SKC,0.00,VWS V14.01,2013-02-06 21:04:00,
2013-02-06 14:09:00,46.1,26.5,29.75,WNW,292,1.8,3.4,46,0.00,,SKC,0.00,VWS V14.01,2013-02-06 21:09:00,
2013-02-06 14:14:00,45.7,26.1,29.75,WNW,292,2.2,3.4,46,0.00,,SKC,0.00,VWS V14.01,2013-02-06 21:14:00,
2013-02-06 14:19:00,45.9,26.8,29.75,NW,315,1.6,3.4,47,0.00,,SKC,0.00,VWS V14.01,2013-02-06 21:19:00,
2013-02-06 14:25:00,46.1,25.4,29.75,NNE,22,0.7,3.4,44,0.00,,SKC,0.00,VWS V14.01,2013-02-06 21:25:00,
2013-02-06 14:30:00,46.3,26.1,29.75,NW,315,2.9,3.6,45,0.00,,SKC,0.00,VWS V14.01,2013-02-06 21:30:00,
2013-02-06 14:35:00,45.9,25.2,29.76,NW,315,1.8,2.5,44,0.00,,SKC,0.00,VWS V14.01,2013-02-06 21:35:00,
2013-02-06 14:40:00,45.5,25.4,29.76,WNW,292,1.1,4.3,45,0.00,,SKC,0.00,VWS V14.01,2013-02-06 21:40:00,
2013-02-06 14:45:00,45.2,25.7,29.76,ENE,68,0.9,4.3,46,0.00,,SKC,0.00,VWS V14.01,2013-02-06 21:45:00,
2013-02-06 14:50:00,44.6,25.1,29.76,North,0,0.9,4.7,46,0.00,,SKC,0.00,VWS V14.01,2013-02-06 21:50:00,
2013-02-06 14:55:00,44.3,24.8,29.77,NW,315,2.5,4.7,46,0.00,,SKC,0.00,VWS V14.01,2013-02-06 21:55:00,
2013-02-06 15:00:00,44.1,25.2,29.77,North,0,0.7,0.7,47,0.00,,SKC,0.00,VWS V14.01,2013-02-06 22:00:00,
2013-02-06 15:05:00,44.3,25.4,29.77,East,90,0.4,0.9,47,0.00,,SKC,0.00,VWS V14.01,2013-02-06 22:05:00,
2013-02-06 15:11:00,44.5,25.0,29.77,NNE,22,1.6,2.0,46,0.00,,SKC,0.00,VWS V14.01,2013-02-06 22:11:00,
2013-02-06 15:16:00,44.5,24.5,29.77,WNW,292,1.6,2.2,45,0.00,,SKC,0.00,VWS V14.01,2013-02-06 22:16:00,
2013-02-06 15:21:00,43.6,24.2,29.77,WNW,292,1.6,2.2,46,0.00,,SKC,0.00,VWS V14.01,2013-02-06 22:21:00,
2013-02-06 15:26:00,43.0,24.2,29.78,WNW,292,2.2,2.7,47,0.00,,SKC,0.00,VWS V14.01,2013-02-06 22:26:00,
2013-02-06 15:31:00,42.5,23.7,29.78,NW,315,0.2,0.7,47,0.00,,SKC,0.00,VWS V14.01,2013-02-06 22:31:00,
2013-02-06 15:36:00,42.1,23.8,29.78,NNW,338,2.5,2.5,48,0.00,,SKC,0.00,VWS V14.01,2013-02-06 22:36:00,
2013-02-06 15:41:00,42.1,23.8,29.79,NNW,338,0.2,2.5,48,0.00,,SKC,0.00,VWS V14.01,2013-02-06 22:41:00,
2013-02-06 15:46:00,42.1,24.3,29.79,NNE,22,0.7,2.5,49,0.00,,SKC,0.00,VWS V14.01,2013-02-06 22:46:00,
2013-02-06 15:52:00,42.3,24.0,29.79,WNW,292,1.1,2.5,48,0.00,,SKC,0.00,VWS V14.01,2013-02-06 22:52:00,
2013-02-06 15:57:00,42.3,24.0,29.79,NNW,338,0.7,2.5,48,0.00,,SKC,0.00,VWS V14.01,2013-02-06 22:57:00,
2013-02-06 16:02:00,42.1,23.8,29.79,NNW,338,0.4,2.2,48,0.00,,SKC,0.00,VWS V14.01,2013-02-06 23:02:00,
2013-02-06 16:07:00,42.1,24.3,29.79,North,0,0.7,2.2,49,0.00,,SKC,0.00,VWS V14.01,2013-02-06 23:07:00,
2013-02-06 16:12:00,41.8,24.1,29.79,NNE,22,2.5,2.5,49,0.00,,SKC,0.00,VWS V14.01,2013-02-06 23:12:00,
2013-02-06 16:17:00,41.6,23.9,29.79,North,0,0.0,3.4,49,0.00,,SKC,0.00,VWS V14.01,2013-02-06 23:17:00,
2013-02-06 16:22:00,41.4,24.2,29.80,NNW,338,0.4,3.4,50,0.00,,SKC,0.00,VWS V14.01,2013-02-06 23:22:00,
2013-02-06 16:28:00,41.2,24.0,29.80,North,0,1.1,3.4,50,0.00,,SKC,0.00,VWS V14.01,2013-02-06 23:28:00,
2013-02-06 16:33:00,41.0,23.8,29.80,North,0,2.0,2.0,50,0.00,,SKC,0.00,VWS V14.01,2013-02-06 23:33:00,
2013-02-06 16:38:00,40.9,23.7,29.80,NE,45,2.7,2.7,50,0.00,,SKC,0.00,VWS V14.01,2013-02-06 23:38:00,
2013-02-06 16:43:00,40.7,24.0,29.80,ENE,68,1.3,2.7,51,0.00,,SKC,0.00,VWS V14.01,2013-02-06 23:43:00,
2013-02-06 16:48:00,40.1,23.9,29.80,NNW,338,0.2,2.7,52,0.00,,SKC,0.00,VWS V14.01,2013-02-06 23:48:00,
2013-02-06 16:53:00,39.8,24.5,29.80,NNW,338,0.2,2.7,54,0.00,,SKC,0.00,VWS V14.01,2013-02-06 23:53:00,
2013-02-06 16:58:00,39.1,24.3,29.81,NNW,338,0.2,2.7,55,0.00,,SKC,0.00,VWS V14.01,2013-02-06 23:58:00,
2013-02-06 17:03:00,38.5,23.8,29.81,NW,315,0.4,0.7,55,0.00,,SKC,0.00,VWS V14.01,2013-02-07 00:03:00,
2013-02-06 17:08:00,38.0,24.1,29.81,North,0,1.1,1.1,57,0.00,,SKC,0.00,VWS V14.01,2013-02-07 00:08:00,
2013-02-06 17:14:00,37.3,23.1,29.81,NW,315,0.7,1.1,56,0.00,,SKC,0.00,VWS V14.01,2013-02-07 00:14:00,
2013-02-06 17:19:00,36.9,23.1,29.82,NNW,338,0.4,1.1,57,0.00,,SKC,0.00,VWS V14.01,2013-02-07 00:19:00,
2013-02-06 17:24:00,36.4,23.0,29.82,WNW,292,0.7,1.3,58,0.00,,SKC,0.00,VWS V14.01,2013-02-07 00:24:00,
2013-02-06 17:29:00,35.8,23.3,29.82,NNW,338,0.9,1.3,60,0.00,,SKC,0.00,VWS V14.01,2013-02-07 00:29:00,
2013-02-06 17:34:00,35.1,22.6,29.83,NNW,338,1.8,1.8,60,0.00,,SKC,0.00,VWS V14.01,2013-02-07 00:34:00,
2013-02-06 17:39:00,34.6,22.5,29.83,NNW,338,0.7,1.8,61,0.00,,SKC,0.00,VWS V14.01,2013-02-07 00:39:00,
2013-02-06 17:44:00,34.2,22.2,29.83,NW,315,0.0,1.8,61,0.00,,SKC,0.00,VWS V14.01,2013-02-07 00:44:00,
2013-02-06 17:49:00,33.8,22.2,29.83,NW,315,0.9,1.8,62,0.00,,SKC,0.00,VWS V14.01,2013-02-07 00:49:00,
2013-02-06 17:55:00,33.3,22.1,29.83,NW,315,0.4,1.8,63,0.00,,SKC,0.00,VWS V14.01,2013-02-07 00:55:00,
2013-02-06 18:00:00,32.8,21.6,29.83,NW,315,0.0,1.8,63,0.00,,SKC,0.00,VWS V14.01,2013-02-07 01:00:00,
2013-02-06 18:05:00,32.4,22.0,29.83,NW,315,0.4,0.7,65,0.00,,SKC,0.00,VWS V14.01,2013-02-07 01:05:00,
2013-02-06 18:10:00,32.0,21.6,29.84,NW,315,0.4,0.7,65,0.00,,SKC,0.00,VWS V14.01,2013-02-07 01:10:00,
2013-02-06 18:15:00,31.9,21.5,29.84,NW,315,0.7,0.7,65,0.00,,SKC,0.00,VWS V14.01,2013-02-07 01:15:00,
2013-02-06 18:20:00,31.3,21.3,29.85,NW,315,0.4,0.9,66,0.00,,SKC,0.00,VWS V14.01,2013-02-07 01:20:00,
2013-02-06 18:25:00,31.3,21.3,29.85,NW,315,0.4,0.9,66,0.00,,SKC,0.00,VWS V14.01,2013-02-07 01:25:00,
2013-02-06 18:30:00,31.0,21.0,29.85,NW,315,0.4,0.4,66,0.00,,SKC,0.00,VWS V14.01,2013-02-07 01:30:00,
2013-02-06 18:35:00,30.6,20.6,29.85,NW,315,0.4,0.4,66,0.00,,SKC,0.00,VWS V14.01,2013-02-07 01:35:00,
2013-02-06 18:41:00,30.4,20.8,29.85,NW,315,0.4,1.3,67,0.00,,SKC,0.00,VWS V14.01,2013-02-07 01:41:00,
2013-02-06 18:46:00,30.2,20.9,29.86,NW,315,0.7,1.3,68,0.00,,SKC,0.00,VWS V14.01,2013-02-07 01:46:00,
2013-02-06 18:51:00,29.9,21.3,29.86,NW,315,0.4,1.3,70,0.00,,SKC,0.00,VWS V14.01,2013-02-07 01:51:00,
2013-02-06 18:56:00,29.5,20.9,29.86,NW,315,0.2,1.3,70,0.00,,SKC,0.00,VWS V14.01,2013-02-07 01:56:00,
2013-02-06 19:01:00,29.3,20.7,29.86,NW,315,0.0,0.2,70,0.00,,SKC,0.00,VWS V14.01,2013-02-07 02:01:00,
2013-02-06 19:06:00,29.0,21.1,29.86,North,0,0.0,0.2,72,0.00,,SKC,0.00,VWS V14.01,2013-02-07 02:06:00,
2013-02-06 19:11:00,28.8,20.9,29.87,NNW,338,0.7,0.7,72,0.00,,SKC,0.00,VWS V14.01,2013-02-07 02:11:00,
2013-02-06 19:16:00,28.8,20.6,29.87,North,0,2.0,2.0,71,0.00,,SKC,0.00,VWS V14.01,2013-02-07 02:16:00,
2013-02-06 19:22:00,28.4,21.2,29.87,NW,315,0.4,2.0,74,0.00,,SKC,0.00,VWS V14.01,2013-02-07 02:22:00,
2013-02-06 19:27:00,28.4,21.2,29.87,NW,315,0.4,2.0,74,0.00,,SKC,0.00,VWS V14.01,2013-02-07 02:27:00,
2013-02-06 19:32:00,27.9,21.0,29.87,NW,315,0.0,0.0,75,0.00,,SKC,0.00,VWS V14.01,2013-02-07 02:32:00,
2013-02-06 19:37:00,27.5,20.6,29.87,NNW,338,0.2,0.7,75,0.00,,SKC,0.00,VWS V14.01,2013-02-07 02:37:00,
2013-02-06 19:42:00,27.5,20.6,29.87,NNW,338,0.0,0.9,75,0.00,,SKC,0.00,VWS V14.01,2013-02-07 02:42:00,
2013-02-06 19:47:00,27.4,20.5,29.87,NNW,338,0.4,0.9,75,0.00,,SKC,0.00,VWS V14.01,2013-02-07 02:47:00,
2013-02-06 19:52:00,27.2,20.6,29.87,NNW,338,0.2,0.9,76,0.00,,SKC,0.00,VWS V14.01,2013-02-07 02:52:00,
2013-02-06 19:58:00,27.0,20.8,29.87,NNW,338,0.4,0.9,77,0.00,,SKC,0.00,VWS V14.01,2013-02-07 02:58:00,
2013-02-06 20:03:00,27.0,20.5,29.88,NNW,338,0.4,0.4,76,0.00,,SKC,0.00,VWS V14.01,2013-02-07 03:03:00,
2013-02-06 20:08:00,26.8,20.6,29.88,NW,315,0.4,0.4,77,0.00,,SKC,0.00,VWS V14.01,2013-02-07 03:08:00,
2013-02-06 20:13:00,27.0,21.1,29.88,NW,315,0.2,0.4,78,0.00,,SKC,0.00,VWS V14.01,2013-02-07 03:13:00,
2013-02-06 20:18:00,26.6,20.7,29.88,NW,315,0.7,0.7,78,0.00,,SKC,0.00,VWS V14.01,2013-02-07 03:18:00,
2013-02-06 20:23:00,26.6,20.4,29.88,NNW,338,0.0,0.7,77,0.00,,SKC,0.00,VWS V14.01,2013-02-07 03:23:00,
2013-02-06 20:28:00,26.5,20.3,29.89,NW,315,0.9,0.9,77,0.00,,SKC,0.00,VWS V14.01,2013-02-07 03:28:00,
2013-02-06 20:33:00,26.5,20.6,29.89,NW,315,0.0,0.4,78,0.00,,SKC,0.00,VWS V14.01,2013-02-07 03:33:00,
2013-02-06 20:39:00,26.3,20.4,29.89,NW,315,0.0,0.4,78,0.00,,SKC,0.00,VWS V14.01,2013-02-07 03:39:00,
2013-02-06 20:44:00,26.1,20.2,29.88,NW,315,0.0,0.4,78,0.00,,SKC,0.00,VWS V14.01,2013-02-07 03:44:00,
2013-02-06 20:49:00,25.9,20.3,29.89,NW,315,0.2,0.4,79,0.00,,SKC,0.00,VWS V14.01,2013-02-07 03:49:00,
2013-02-06 20:54:00,25.9,20.3,29.88,NNW,338,0.4,0.7,79,0.00,,SKC,0.00,VWS V14.01,2013-02-07 03:54:00,
2013-02-06 20:59:00,25.9,20.3,29.88,NNW,338,0.2,0.7,79,0.00,,SKC,0.00,VWS V14.01,2013-02-07 03:59:00,
2013-02-06 21:04:00,26.3,20.7,29.88,NNW,338,2.2,2.2,79,0.00,,SKC,0.00,VWS V14.01,2013-02-07 04:04:00,
2013-02-06 21:09:00,26.5,20.9,29.88,NNW,338,0.4,2.2,79,0.00,,SKC,0.00,VWS V14.01,2013-02-07 04:09:00,
2013-02-06 21:14:00,26.6,21.3,29.88,WNW,292,0.4,2.2,80,0.00,,SKC,0.00,VWS V14.01,2013-02-07 04:14:00,
2013-02-06 21:19:00,26.3,20.7,29.88,WNW,292,1.1,2.2,79,0.00,,SKC,0.00,VWS V14.01,2013-02-07 04:19:00,
2013-02-06 21:25:00,26.1,20.5,29.89,NW,315,0.4,2.2,79,0.00,,SKC,0.00,VWS V14.01,2013-02-07 04:25:00,
2013-02-06 21:30:00,25.9,20.3,29.89,NW,315,0.0,2.2,79,0.00,,SKC,0.00,VWS V14.01,2013-02-07 04:30:00,
2013-02-06 21:35:00,25.9,20.6,29.89,WNW,292,0.2,0.4,80,0.00,,SKC,0.00,VWS V14.01,2013-02-07 04:35:00,
2013-02-06 21:40:00,25.9,20.3,29.89,NW,315,0.0,0.4,79,0.00,,SKC,0.00,VWS V14.01,2013-02-07 04:40:00,
2013-02-06 21:45:00,25.7,20.4,29.89,NW,315,0.2,0.4,80,0.00,,SKC,0.00,VWS V14.01,2013-02-07 04:45:00,
2013-02-06 21:50:00,25.6,20.3,29.89,NW,315,0.0,0.4,80,0.00,,SKC,0.00,VWS V14.01,2013-02-07 04:50:00,
2013-02-06 21:55:00,25.2,19.6,29.89,NNW,338,0.2,0.4,79,0.00,,SKC,0.00,VWS V14.01,2013-02-07 04:55:00,
2013-02-06 22:00:00,25.2,19.9,29.89,NNW,338,0.0,0.0,80,0.00,,SKC,0.00,VWS V14.01,2013-02-07 05:00:00,
2013-02-06 22:01:00,25.4,20.1,29.89,NNW,338,0.2,0.2,80,0.00,,SKC,0.00,VWS V14.01,2013-02-07 05:01:00,
2013-02-06 22:02:00,25.4,20.1,29.89,NNW,338,0.0,0.2,80,0.00,,SKC,0.00,VWS V14.01,2013-02-07 05:02:00,
2013-02-06 22:07:00,25.4,20.1,29.89,NNW,338,0.0,0.2,80,0.00,,SKC,0.00,VWS V14.01,2013-02-07 05:07:00,
2013-02-06 22:12:00,25.6,20.3,29.89,NW,315,0.4,0.4,80,0.00,,SKC,0.00,VWS V14.01,2013-02-07 05:12:00,
2013-02-06 22:17:00,25.9,20.6,29.90,NNW,338,0.4,0.4,80,0.00,,SKC,0.00,VWS V14.01,2013-02-07 05:17:00,
2013-02-06 22:22:00,25.9,20.6,29.90,NNW,338,0.4,0.7,80,0.00,,SKC,0.00,VWS V14.01,2013-02-07 05:22:00,
2013-02-06 22:27:00,26.1,20.8,29.89,NW,315,0.2,1.3,80,0.00,,SKC,0.00,VWS V14.01,2013-02-07 05:27:00,
2013-02-06 22:32:00,26.3,20.7,29.89,WNW,292,0.9,1.1,79,0.00,,SKC,0.00,VWS V14.01,2013-02-07 05:32:00,
2013-02-06 22:38:00,26.3,20.7,29.89,NNW,338,0.4,1.8,79,0.00,,SKC,0.00,VWS V14.01,2013-02-07 05:38:00,
2013-02-06 22:43:00,26.3,20.7,29.90,NNW,338,1.1,1.8,79,0.00,,SKC,0.00,VWS V14.01,2013-02-07 05:43:00,
2013-02-06 22:48:00,26.3,20.7,29.90,NNW,338,0.9,1.8,79,0.00,,SKC,0.00,VWS V14.01,2013-02-07 05:48:00,
2013-02-06 22:53:00,26.3,20.7,29.90,NW,315,0.7,1.8,79,0.00,,SKC,0.00,VWS V14.01,2013-02-07 05:53:00,
2013-02-06 22:58:00,26.3,20.7,29.90,NNW,338,1.8,1.8,79,0.00,,SKC,0.00,VWS V14.01,2013-02-07 05:58:00,
2013-02-06 23:03:00,26.3,20.7,29.90,NNW,338,0.4,1.8,79,0.00,,SKC,0.00,VWS V14.01,2013-02-07 06:03:00,
2013-02-06 23:08:00,26.3,20.7,29.90,NNW,338,0.4,1.8,79,0.00,,SKC,0.00,VWS V14.01,2013-02-07 06:08:00,
2013-02-06 23:13:00,26.3,20.7,29.90,NNW,338,0.0,1.8,79,0.00,,SKC,0.00,VWS V14.01,2013-02-07 06:13:00,
2013-02-06 23:18:00,26.3,20.7,29.90,NNW,338,0.4,1.8,79,0.00,,SKC,0.00,VWS V14.01,2013-02-07 06:18:00,
2013-02-06 23:24:00,26.3,20.7,29.90,NNW,338,0.4,1.8,79,0.00,,SKC,0.00,VWS V14.01,2013-02-07 06:24:00,
2013-02-06 23:29:00,26.5,20.9,29.90,NNW,338,0.2,1.8,79,0.00,,SKC,0.00,VWS V14.01,2013-02-07 06:29:00,
2013-02-06 23:34:00,26.6,21.0,29.90,NW,315,0.4,0.7,79,0.00,,SKC,0.00,VWS V14.01,2013-02-07 06:34:00,
2013-02-06 23:39:00,26.6,21.0,29.90,NNW,338,0.9,0.9,79,0.00,,SKC,0.00,VWS V14.01,2013-02-07 06:39:00,
2013-02-06 23:44:00,26.6,20.7,29.91,NW,315,0.4,1.3,78,0.00,,SKC,0.00,VWS V14.01,2013-02-07 06:44:00,
2013-02-06 23:49:00,26.6,20.7,29.91,NW,315,1.1,1.8,78,0.00,,SKC,0.00,VWS V14.01,2013-02-07 06:49:00,
2013-02-06 23:54:00,26.6,20.7,29.91,NNW,338,0.4,1.8,78,0.00,,SKC,0.00,VWS V14.01,2013-02-07 06:54:00,